Weather History for Alexandria, LA

Change the Weather History Date:

Wednesday, January 18, 2012

  Actual Average Record
Temperature  
Mean Temperature 46 °F 49 °F  
Max Temperature 56 °F 59 °F 82 °F (1907)
Min Temperature 36 °F 38 °F 13 °F (1930)
Degree Days  
Heating Degree Days 19 16  
Month to date heating degree days 223 288  
Since 1 July heating degree days 1035 1077  
Moisture  
Dew Point 32 °F    
Average Humidity 62    
Maximum Humidity 85    
Minimum Humidity 38    
Precipitation  
Precipitation 0.00 in 0.18 in 2.55 in (1987)
Month to date precipitation 3.20 2.77  
Year to date precipitation 3.20 2.77  
Snow  
Snow 0.00 in - 0.30 in (1940)
Month to date snowfall 0.0  
Since 1 July snowfall 0.0  
Snow Depth 0.00 in    
Sea Level Pressure  
Sea Level Pressure 30.22 in    
Wind  
Wind Speed 5 mph (ENE)    
Max Wind Speed 16 mph    
Max Gust Speed 24 mph    
Visibility 10 miles    
Events      
T = Trace of Precipitation, MM = Missing Value Source: NWS Daily Summary

Daily Weather History Graph

Daily Weather History Graph

Search for Another Location

Airport:

Trip Planner

Search our weather history database for the weather conditions in past years. The results will help you decide how hot, cold, wet, or windy it might be!

Date:

Astronomy

Jan. 18, 2012 Rise Set
Actual Time 7:09 AM CST 5:32 PM CST
Civil Twilight 6:42 AM CST 5:58 PM CST
Nautical Twilight 6:13 AM CST 6:28 PM CST
Astronomical Twilight 5:44 AM CST 6:57 PM CST
Moon 2:37 AM CST (1/18) 1:14 PM CST (1/18)
Length of Visible Light 11h 15m
Length of Day
10h 23m
Waning Crescent, 24% of the Moon is Illuminated
Jan 18
Waning Crescent
Jan 23
New
Jan 30
First Quarter
Feb 7
Full
Feb 14
Last Quarter

Hourly Weather History & Observations

Time (CST) Temp. Windchill Dew Point Humidity Pressure Visibility Wind Dir Wind Speed Gust Speed Precip Events Conditions
12:53 AM 48.9 °F - 35.1 °F 59% 30.24 in 10.0 mi North 5.8 mph - N/A   Clear
1:53 AM 46.0 °F 42.5 °F 36.0 °F 68% 30.26 in 10.0 mi NNE 6.9 mph - N/A   Clear
2:53 AM 43.0 °F 38.2 °F 30.9 °F 62% 30.27 in 10.0 mi NNE 8.1 mph - N/A   Clear
3:53 AM 42.1 °F 37.1 °F 30.0 °F 62% 30.28 in 10.0 mi NNE 8.1 mph - N/A   Clear
4:53 AM 39.9 °F 34.5 °F 28.9 °F 65% 30.29 in 10.0 mi NNE 8.1 mph - N/A   Clear
5:53 AM 37.9 °F 32.7 °F 28.9 °F 70% 30.31 in 10.0 mi NNE 6.9 mph - N/A   Clear
6:53 AM 37.0 °F 33.3 °F 28.0 °F 70% 30.32 in 10.0 mi NNE 4.6 mph - N/A   Clear
7:53 AM 37.0 °F 33.3 °F 28.0 °F 70% 30.32 in 10.0 mi NNE 4.6 mph - N/A   Clear
8:53 AM 39.0 °F 33.4 °F 28.0 °F 65% 30.31 in 10.0 mi NE 8.1 mph - N/A   Clear
9:53 AM 42.1 °F 37.7 °F 28.9 °F 60% 30.32 in 10.0 mi NNE 6.9 mph - N/A   Clear
10:53 AM 44.1 °F 42.5 °F 30.0 °F 58% 30.30 in 10.0 mi Variable 3.5 mph - N/A   Clear
11:53 AM 46.0 °F - 28.9 °F 51% 30.27 in 10.0 mi Calm Calm - N/A   Clear
12:53 PM 48.9 °F - 32.0 °F 52% 30.22 in 10.0 mi SSW 3.5 mph - N/A   Clear
1:53 PM 52.0 °F - 35.1 °F 53% 30.20 in 10.0 mi West 3.5 mph - N/A   Clear
2:53 PM 54.0 °F - 34.0 °F 47% 30.19 in 10.0 mi West 3.5 mph - N/A   Clear
3:53 PM 55.9 °F - 30.9 °F 39% 30.16 in 10.0 mi SE 3.5 mph - N/A   Clear
4:53 PM 55.0 °F - 33.1 °F 43% 30.17 in 10.0 mi Calm Calm - N/A   Clear
5:53 PM 51.1 °F - 28.9 °F 43% 30.17 in 10.0 mi East 4.6 mph - N/A   Clear
6:53 PM 46.9 °F - 34.0 °F 61% 30.16 in 10.0 mi ESE 5.8 mph - N/A   Clear
7:53 PM 45.0 °F 43.5 °F 34.0 °F 65% 30.14 in 10.0 mi ESE 3.5 mph - N/A   Clear
8:53 PM 42.1 °F 39.2 °F 34.0 °F 73% 30.13 in 10.0 mi SE 4.6 mph - N/A   Clear
9:53 PM 39.2 °F 35.0 °F 35.6 °F 87% 30.11 in 10.0 mi SE 5.8 mph - N/A   Clear
10:53 PM 39.9 °F 37.8 °F 34.0 °F 79% 30.11 in 10.0 mi ESE 3.5 mph - N/A   Clear
11:53 PM 39.0 °F - 35.1 °F 86% 30.12 in 10.0 mi Calm Calm - N/A   Clear